Hourly Data Report for May 17, 2012

All times are specified in Local Standard Time (LST). Add 1 hour to adjust for Daylight Saving Time where and when it is observed.

PENTICTON A
BRITISH COLUMBIA

49°27'45.000" N
119°36'08.000" W
344.40 m
1126146
71889
YYF

Download Data

Hourly Data (May 2012)
Hourly Data Report for May 17, 2012
Temp Definition
°C
Dew Point Temp Definition
°C
Rel Hum Definition
%
Wind Dir Definition
10's deg

Wind Spd Definition
km/h
Visibility Definition
km
Stn Press Definition
kPa
Hmdx Definition


Wind Chill Definition


Weather Definition


TIME
00:00 Legend Double Dagger 8.3 3.2 70 36 13 10.0 97.32     LegendNANA
01:00 Legend Double Dagger 7.4 3.3 75 35 5 10.0 97.31     Mainly Clear
02:00 Legend Double Dagger 8.0 3.3 72   0 10.0 97.33     LegendNANA
03:00 Legend Double Dagger 4.4 1.1 79 3 7 10.0 97.34     LegendNANA
04:00 Legend Double Dagger 4.3 1.0 79 34 7 10.0 97.33     Mainly Clear
05:00 Legend Double Dagger 4.6 1.5 80 1 6 10.0 97.34     LegendNANA
06:00 Legend Double Dagger 9.4 4.0 69 36 10 10.0 97.33     LegendNANA
07:00 Legend Double Dagger 11.4 5.1 65 35 9 10.0 97.30     Mainly Clear
08:00 Legend Double Dagger 13.2 4.4 55 0 8 10.0 97.26     LegendNANA
09:00 Legend Double Dagger 15.2 0.3 36 35 9 10.0 97.22     LegendNANA
10:00 Legend Double Dagger 16.6 -0.1 32 5 13 10.0 97.16     Mainly Clear
11:00 Legend Double Dagger 17.8 0.1 30 5 4 10.0 97.12     LegendNANA
12:00 Legend Double Dagger 18.5 -1.8 25 3 14 10.0 97.06     LegendNANA
13:00 Legend Double Dagger 18.9 -3.2 22 34 14 10.0 97.00     Mainly Clear
14:00 Legend Double Dagger 18.7 -3.3 22 33 19 10.0 96.96     LegendNANA
15:00 Legend Double Dagger 19.9 -1.7 23 35 14 10.0 96.93     LegendNANA
16:00 Legend Double Dagger 19.4 -3.4 21 35 15 10.0 96.88     Mainly Clear
17:00 Legend Double Dagger 18.4 -0.3 28 1 22 10.0 96.88     LegendNANA
18:00 Legend Double Dagger 17.3 -0.8 29 0 28 10.0 96.92     LegendNANA
19:00 Legend Double Dagger 12.9 0.7 43 36 34 10.0 97.08     Mainly Clear
20:00 Legend Double Dagger 10.8 1.7 53 36 14 10.0 97.15     LegendNANA
21:00 Legend Double Dagger 10.7 1.6 53 35 11 10.0 97.25     LegendNANA
22:00 Legend Double Dagger 10.3 0.1 49 36 18 10.0 97.29     Mostly Cloudy
23:00 Legend Double Dagger 9.6 1.0 55 35 5 10.0 97.33     LegendNANA

Notes on Data Quality.

Legend

  • E = Estimated
  • M = Missing
  • NA = Not Available
  • ‡ = Partner data that is not subject to review by the National Climate Archives
Date modified: